Location: ????
(30.1475°N, 31.1342°E)
Time: 01:54:47
(UTC+00:00)

ARIANE 5 R/B - Visible Passes

Search period start: 17 April 2024 00:00
Search period end: 27 April 2024 00:00
Orbit: 748 x 793 km, 98.8° (Epoch: 16 April)

Date Brightness Start Highest point End Pass type
(mag) Time Alt. Az. Time Alt. Az. Time Alt. Az.
17 Apr 4.5 02:11:18 10° NE 02:15:52 30° E 02:20:21 10° SSE visible
18 Apr 5.4 01:38:20 10° ENE 01:40:25 12° E 01:42:30 10° ESE visible
19 Apr 3.2 02:39:25 10° NNE 02:44:35 61° ESE 02:49:41 10° S visible
20 Apr 4.7 02:05:01 10° NE 02:09:17 25° E 02:13:30 10° SSE visible
22 Apr 3.5 02:32:57 10° NNE 02:38:02 51° E 02:43:01 10° S visible
23 Apr 5.0 01:58:46 10° NE 02:02:41 21° E 02:06:33 10° SE visible
25 Apr 3.8 02:26:31 10° NNE 02:31:27 42° E 02:36:17 10° S visible
26 Apr 5.2 01:52:36 10° NE 01:56:04 18° E 01:59:29 10° SE visible
